Regional Weather Roundup
Issued by NWS

Home | Current Version | Previous Version | Text Only | Print | Product List | Glossary On
Versions: 1 2 3 4 5 6 7 8 9 10 11 12 13 14 15 16 17 18 19 20 21 22 23 24 25 26 27 28 29 30 31 32 33 34 35 36 37 38 39 40 41 42 43 44 45 46 47 48 49 50
897
ASUS43 KTOP 221659
RWRKS

WEATHER ROUNDUP FOR KANSAS
NATIONAL WEATHER SERVICE GOODLAND KS
1200 PM CDT MON MAY 22 2017

NOTE:  "FAIR" INDICATES FEW OR NO CLOUDS BELOW 12,000 FEET WITH NO
SIGNIFICANT WEATHER AND/OR OBSTRUCTIONS TO VISIBILITY.

KSZ001>006-013>018-027>032-041>047-221800-
NORTHWEST KANSAS

CITY           SKY/WX    TMP DP  RH WIND       PRES   REMARKS
GOODLAND       SUNNY     64  45  49 NW14      30.08F
HAYS           LGT RAIN  57  55  93 SW5       30.06S
HILL CITY      CLOUDY    61  52  72 NW5       30.05F
RUSSELL        RAIN      57  55  93 S6        30.03F FOG
$$

KSZ061>065-074>080-084>089-221800-
SOUTHWEST KANSAS

CITY           SKY/WX    TMP DP  RH WIND       PRES   REMARKS
DODGE CITY     RAIN      57  54  89 W12       30.07S FOG
ELKHART          N/A     58  44  60 W1          N/A
GARDEN CITY    CLOUDY    59  50  72 NW18      30.09S
LIBERAL          N/A     61  51  70 SW8       30.10F
$$

KSZ066>073-081>083-090>101-221800-
SOUTHEAST KANSAS

CITY           SKY/WX    TMP DP  RH WIND       PRES   REMARKS
CHANUTE        CLOUDY    71  52  50 SW12      30.06F
COFFEYVILLE    CLOUDY    73  55  53 S9        30.06F
HUTCHINSON     CLOUDY    66  49  54 W12       30.04F
MEDICINE LODGE   N/A     69  47  45 SW10      30.04F
NEWTON         CLOUDY    65  55  70 W10       30.06F
PARSONS        CLOUDY    70  52  52 S9        30.07F
WICHITA INTL   CLOUDY    64  53  67 W12       30.05F
WICHITA JABRA  CLOUDY    66  54  65 W9        30.05F
WINFIELD       CLOUDY    65  52  62 SW7       30.07F
$$

KSZ007>012-019>026-033>040-048>060-102>105-221800-
NORTHEAST KANSAS

CITY           SKY/WX    TMP DP  RH WIND       PRES   REMARKS
CONCORDIA      RAIN      56  56 100 W8        30.05R FOG
EMPORIA        CLOUDY    67  54  63 SW8       30.05F
LAWRENCE       CLOUDY    65  58  78 S6        30.05F
MANHATTAN      CLOUDY    67  61  81 SW9       30.03S
OLATHE IND     CLOUDY    68  57  68 SW10      30.06F
OLATHE EXE     CLOUDY    65  57  75 W6        30.05F
SALINA         LGT RAIN  65  56  72 W15       30.04S
TOPEKA BILLARD CLOUDY    66  60  81 S9        30.03F
TOPEKA FORBES  CLOUDY    66  59  78 S10       30.04F
$$




USA.gov is the U.S. government's official web portal to all federal, state and local government web resources and services.